TimeAKST,TemperatureF,Dew PointF,Humidity,Sea Level PressureIn,VisibilityMPH,Wind Direction,Wind SpeedMPH,Gust SpeedMPH,PrecipitationIn,Events,Conditions,WindDirDegrees,DateUTC
12:16 AM,-7.6,-11.2,84,29.90,10.0,ENE,4.6,-,N/A,,Clear,70,2012-12-07 09:16:00
12:36 AM,-9.4,-11.2,92,29.90,10.0,ENE,3.5,-,N/A,,Clear,70,2012-12-07 09:36:00
12:56 AM,-9.4,-13.0,84,29.89,10.0,ENE,5.8,-,N/A,,Clear,70,2012-12-07 09:56:00
1:16 AM,-9.4,-11.2,92,29.90,10.0,ENE,5.8,-,N/A,,Clear,70,2012-12-07 10:16:00
1:36 AM,-9.4,-14.8,77,29.90,10.0,ENE,4.6,-,N/A,,Clear,60,2012-12-07 10:36:00
1:56 AM,-11.2,-14.8,84,29.91,10.0,ENE,3.5,-,N/A,,Clear,70,2012-12-07 10:56:00
2:16 AM,-9.4,-11.2,92,29.91,10.0,ENE,4.6,-,N/A,,Clear,70,2012-12-07 11:16:00
2:36 AM,-9.4,-14.8,77,29.90,10.0,ENE,4.6,-,N/A,,Clear,70,2012-12-07 11:36:00
2:56 AM,-9.4,-11.2,92,29.91,10.0,ENE,3.5,-,N/A,,Clear,70,2012-12-07 11:56:00
3:16 AM,-9.4,-14.8,77,29.91,10.0,ENE,4.6,-,N/A,,Clear,70,2012-12-07 12:16:00
3:36 AM,-9.4,-14.8,77,29.91,10.0,East,4.6,-,N/A,,Clear,80,2012-12-07 12:36:00
3:56 AM,-9.4,-14.8,77,29.91,10.0,ENE,5.8,-,N/A,,Clear,60,2012-12-07 12:56:00
4:16 AM,-9.4,-13.0,84,29.91,10.0,East,4.6,-,N/A,,Clear,80,2012-12-07 13:16:00
4:36 AM,-9.4,-13.0,84,29.90,10.0,ENE,4.6,-,N/A,,Clear,70,2012-12-07 13:36:00
4:56 AM,-9.4,-14.8,77,29.90,10.0,ENE,4.6,-,N/A,,Clear,60,2012-12-07 13:56:00
5:16 AM,-9.4,-14.8,77,29.90,10.0,ENE,4.6,-,N/A,,Clear,70,2012-12-07 14:16:00
5:36 AM,-11.2,-14.8,84,29.90,10.0,East,4.6,-,N/A,,Clear,80,2012-12-07 14:36:00
5:56 AM,-9.4,-13.0,84,29.89,10.0,ENE,5.8,-,N/A,,Clear,70,2012-12-07 14:56:00
6:16 AM,-11.2,-14.8,84,29.89,10.0,East,5.8,-,N/A,,Clear,80,2012-12-07 15:16:00
6:36 AM,-11.2,-14.8,84,29.90,10.0,ENE,4.6,-,N/A,,Clear,70,2012-12-07 15:36:00
6:56 AM,-11.2,-14.8,84,29.90,10.0,ENE,4.6,-,N/A,,Clear,60,2012-12-07 15:56:00
7:16 AM,-11.2,-14.8,84,29.90,10.0,ENE,3.5,-,N/A,,Clear,70,2012-12-07 16:16:00
7:36 AM,-11.2,-16.6,77,29.89,10.0,East,4.6,-,N/A,,Clear,80,2012-12-07 16:36:00
7:56 AM,-11.2,-16.6,77,29.89,10.0,East,4.6,-,N/A,,Clear,80,2012-12-07 16:56:00
8:16 AM,-11.2,-14.8,84,29.89,10.0,ENE,4.6,-,N/A,,Clear,60,2012-12-07 17:16:00
8:36 AM,-11.2,-14.8,84,29.90,10.0,ENE,4.6,-,N/A,,Clear,60,2012-12-07 17:36:00
8:56 AM,-11.2,-16.6,77,29.90,10.0,ENE,3.5,-,N/A,,Clear,70,2012-12-07 17:56:00
9:16 AM,-11.2,-18.4,70,29.90,10.0,ENE,4.6,-,N/A,,Clear,60,2012-12-07 18:16:00
9:36 AM,-11.2,-14.8,84,29.91,10.0,East,4.6,-,N/A,,Clear,90,2012-12-07 18:36:00
9:56 AM,-11.2,-14.8,84,29.91,10.0,ENE,4.6,-,N/A,,Clear,70,2012-12-07 18:56:00
10:16 AM,-11.2,-14.8,84,29.92,10.0,NE,3.5,-,N/A,,Mostly Cloudy,50,2012-12-07 19:16:00
10:36 AM,-11.2,-14.8,84,29.92,9.0,ENE,3.5,-,N/A,,Overcast,70,2012-12-07 19:36:00
10:56 AM,-9.4,-9.4,100,29.92,4.0,Calm,Calm,-,N/A,,Overcast,0,2012-12-07 19:56:00
11:16 AM,-7.6,-7.6,100,29.92,0.8,East,3.5,-,N/A,,Overcast,90,2012-12-07 20:16:00
11:36 AM,-2.2,-2.2,100,29.92,0.2,East,5.8,-,N/A,,Overcast,100,2012-12-07 20:36:00
11:56 AM,-2.2,-5.8,85,29.92,0.2,East,6.9,-,N/A,,Overcast,100,2012-12-07 20:56:00
12:16 PM,-0.4,-0.4,100,29.92,0.2,ESE,5.8,-,N/A,,Overcast,110,2012-12-07 21:16:00
12:36 PM,-0.4,-0.4,100,29.92,1.2,ESE,5.8,-,N/A,,Overcast,110,2012-12-07 21:36:00
12:56 PM,-0.4,-2.2,92,29.92,1.5,East,3.5,-,N/A,,Overcast,90,2012-12-07 21:56:00
1:16 PM,1.4,-0.4,92,29.92,3.0,East,4.6,-,N/A,,Overcast,100,2012-12-07 22:16:00
1:36 PM,1.4,-0.4,92,29.92,2.0,ESE,4.6,-,N/A,,Overcast,110,2012-12-07 22:36:00
1:56 PM,1.4,-0.4,92,29.91,3.0,East,5.8,-,N/A,,Overcast,100,2012-12-07 22:56:00
2:16 PM,1.4,-0.4,92,29.91,5.0,East,4.6,-,N/A,,Overcast,100,2012-12-07 23:16:00
2:36 PM,1.4,-0.4,92,29.91,5.0,East,5.8,-,N/A,,Overcast,100,2012-12-07 23:36:00
2:56 PM,1.4,-0.4,92,29.91,4.0,East,5.8,-,N/A,,Overcast,100,2012-12-07 23:56:00
3:16 PM,1.4,1.4,100,29.91,5.0,East,5.8,-,N/A,,Overcast,100,2012-12-08 00:16:00
3:36 PM,1.4,1.4,100,29.90,8.0,East,5.8,-,N/A,,Mostly Cloudy,80,2012-12-08 00:36:00
3:56 PM,3.2,1.4,92,29.90,10.0,East,5.8,-,N/A,,Mostly Cloudy,80,2012-12-08 00:56:00
4:16 PM,3.2,1.4,92,29.90,8.0,East,6.9,-,N/A,,Overcast,80,2012-12-08 01:16:00
4:36 PM,3.2,1.4,92,29.90,9.0,East,5.8,-,N/A,,Overcast,80,2012-12-08 01:36:00
4:56 PM,5.0,3.2,92,29.90,10.0,East,5.8,-,N/A,,Overcast,80,2012-12-08 01:56:00
5:16 PM,3.2,1.4,92,29.90,8.0,East,5.8,-,N/A,,Overcast,90,2012-12-08 02:16:00
5:36 PM,3.2,3.2,100,29.90,8.0,East,6.9,-,N/A,,Overcast,90,2012-12-08 02:36:00
5:56 PM,3.2,1.4,92,29.89,10.0,East,4.6,-,N/A,,Overcast,90,2012-12-08 02:56:00
6:16 PM,3.2,1.4,92,29.90,10.0,East,3.5,-,N/A,,Overcast,80,2012-12-08 03:16:00
6:36 PM,3.2,1.4,92,29.89,10.0,East,3.5,-,N/A,,Mostly Cloudy,80,2012-12-08 03:36:00
6:56 PM,1.4,-0.4,92,29.89,10.0,East,4.6,-,N/A,,Mostly Cloudy,90,2012-12-08 03:56:00
7:16 PM,3.2,1.4,92,29.90,10.0,ENE,3.5,-,N/A,,Overcast,70,2012-12-08 04:16:00
7:36 PM,1.4,-2.2,85,29.89,10.0,East,4.6,-,N/A,,Mostly Cloudy,100,2012-12-08 04:36:00
7:56 PM,3.2,1.4,92,29.90,10.0,East,4.6,-,N/A,,Overcast,90,2012-12-08 04:56:00
8:16 PM,3.2,1.4,92,29.90,10.0,East,5.8,-,N/A,,Overcast,90,2012-12-08 05:16:00
8:36 PM,3.2,1.4,92,29.89,10.0,East,4.6,-,N/A,,Overcast,80,2012-12-08 05:36:00
8:56 PM,3.2,1.4,92,29.90,10.0,ESE,3.5,-,N/A,,Overcast,110,2012-12-08 05:56:00
9:16 PM,3.2,3.2,100,29.90,10.0,East,4.6,-,N/A,,Overcast,90,2012-12-08 06:16:00
9:36 PM,3.2,3.2,100,29.89,10.0,Calm,Calm,-,N/A,,Overcast,0,2012-12-08 06:36:00
9:56 PM,3.2,1.4,92,29.90,10.0,East,5.8,-,N/A,,Overcast,90,2012-12-08 06:56:00
10:16 PM,3.2,1.4,92,29.90,10.0,East,5.8,-,N/A,,Overcast,90,2012-12-08 07:16:00
10:36 PM,5.0,3.2,92,29.90,5.0,East,5.8,-,N/A,,Overcast,80,2012-12-08 07:36:00
11:16 PM,3.2,1.4,92,29.90,10.0,East,6.9,-,N/A,,Overcast,90,2012-12-08 08:16:00
11:36 PM,3.2,1.4,92,29.91,10.0,ESE,5.8,-,N/A,,Overcast,110,2012-12-08 08:36:00
11:56 PM,5.0,3.2,92,29.91,10.0,ESE,4.6,-,N/A,,Overcast,110,2012-12-08 08:56:00